This is the latest recevied weather packets stored in our database for station/object KY4EF. If no packets are shown the sender has not sent any weather packets the latest 10 day(s).
| Time | Temp. | Humidity | Pressure | Rain* | Wind** | Luminosity | Snow |
|---|---|---|---|---|---|---|---|
| 1777759556 | 15° C | 38% | 1012.4 hPa | 0 mm | - | 103 W/m² | - |
| 1777759253 | 15° C | 38% | 1012.5 hPa | 0 mm | - | 66 W/m² | - |
| 1777758950 | 14.44° C | 37% | 1012.4 hPa | 0 mm | - | 249 W/m² | - |
| 1777758647 | 15° C | 37% | 1012.5 hPa | 0 mm | - | 76 W/m² | - |
| 1777758344 | 15.56° C | 34% | 1011.9 hPa | 0 mm | - | 71 W/m² | - |
| 1777758042 | 16.67° C | 34% | 1012 hPa | 0 mm | - | 353 W/m² | - |
| 1777757738 | 17.22° C | 34% | 1012 hPa | 0 mm | - | 291 W/m² | - |
| 1777757436 | 18.33° C | 33% | 1011.9 hPa | 0 mm | - | 390 W/m² | - |
| 1777757135 | 17.78° C | 32% | 1011.9 hPa | 0 mm | - | 439 W/m² | - |
| 1777756832 | 17.22° C | 32% | 1011.9 hPa | 0 mm | - | 417 W/m² | - |
| 1777756527 | 17.22° C | 34% | 1012 hPa | 0 mm | - | 419 W/m² | - |
| 1777756225 | 16.11° C | 33% | 1011.8 hPa | 0 mm | - | 450 W/m² | - |
| 1777755921 | 16.11° C | 33% | 1012.3 hPa | 0 mm | - | 442 W/m² | - |
| 1777755619 | 16.11° C | 33% | 1012 hPa | 0 mm | - | 387 W/m² | - |
| 1777755315 | 17.22° C | 34% | 1011.8 hPa | 0 mm | - | 525 W/m² | - |
| 1777755012 | 17.78° C | 33% | 1011.7 hPa | 0 mm | - | 556 W/m² | - |
| 1777754709 | 16.67° C | 33% | 1012 hPa | 0 mm | - | 529 W/m² | - |
| 1777754407 | 17.22° C | 36% | 1012 hPa | 0 mm | - | 511 W/m² | - |
| 1777754104 | 18.33° C | 33% | 1011.9 hPa | 0 mm | - | 517 W/m² | - |
| 1777753801 | 18.33° C | 34% | 1011.6 hPa | 0 mm | - | 524 W/m² | - |
| 1777753496 | 18.33° C | 34% | 1011.8 hPa | 0 mm | - | 539 W/m² | - |
| 1777753195 | 17.78° C | 34% | 1011.7 hPa | 0 mm | - | 549 W/m² | - |
| 1777752890 | 17.78° C | 34% | 1011.6 hPa | 0 mm | - | 563 W/m² | - |
| 1777752587 | 18.33° C | 34% | 1011.6 hPa | 0 mm | - | 575 W/m² | - |
| 1777752283 | 18.89° C | 33% | 1011.6 hPa | 0 mm | - | 589 W/m² | - |
* Rain latest hour (hover to see other rain measurements)
** Current wind speed in m/s (hover to see current wind gust speed)